Location: Songkhla
(7.2000°N, 100.6000°E)
Time: 20:46:44
(UTC+07:00)

ISS - Pass Details

Date: 20 April 2026
Orbit: 414 x 424 km, 51.6° (Epoch: 19 May)

Event Time Altitude Azimuth Distance (km) Brightness Sun altitude
Rises 12:25:33 0° 343° (NNW) 2,366 0.1 85.1°
Reaches altitude 10° 12:27:56 10° 358° (N) 1,503 -0.7 84.8°
Maximum altitude 12:30:40 23° 53° (NE) 956 -1.6 84.4°
Drops below altitude 10° 12:33:24 10° 107° (ESE) 1,504 -0.9 84.0°
Sets 12:35:47 0° 122° (ESE) 2,368 0.0 83.6°
